STARLINK-32483, 61856

Orbit data source: Space-Track

STARLINK-32483, 61856 is a payload satellite owned by SpaceX/Seattle (US) in LEO that was launched on Thu, 07 Nov 2024 UTC via an FALCON 9 launch vehicle from the Air Force Eastern Test Range (AFETR). Payload-class satellites include a variety of spacecraft equipped with specific instruments for various scientific and technological missions. These include communications satellites like Starlink; space stations such as the ISS; scientific satellites like the Hubble; Earth observation satellites from companies like Planet Labs, Umbra, and HawkEye 360; GPS; miniature CubeSats for education and research; and military/defense satellites.

Loading next visibility...
Identifier
61856, 2024-202M
Orbit
LEO
Last TLE update
23 hours ago
Origin
Manufacturer
SpaceX/Seattle
Mission
Operational Commercial Communications
Bus & Motor
STARLINK V2M, Unknown motor
Mass
730 kg wet, ~700 kg dry
Launch date (UTC)
2024-11-07 (8 months ago)
Launch vehicle
FALCON 9
Launch site
Air Force Eastern Test Range (AFETR)
Object type
Payload
Rocket body
Debris
Shape & HBR
Box + 2 Pan, 29 m
Radar Cross Section
33.884 m², Large (>1 m²)

Expand to show TLE details & history

TLE from 23 hours ago
0 STARLINK-32483
1 61856U 24202M   25183.35497063 -.00000505  00000-0 -88356-5 0  9999
2 61856  43.0003 211.6210 0001571 265.9798  94.0874 15.27575277 37056
Epoch: 2025-07-02T08:31Z
TLE epoch observation values (Epoch: 2025-07-02T08:31:09.462Z)
Latitude
-0.00002°
Longitude
163.19429°
Altitude
482.916 km
Speed
7.626 km/s
True Right ascension
14h 06m 29s
True Declination
0° 00' 00"
Sunlit
Object was in daylight at epoch
Visualization orbit readout
Latitude
26.06297°
Longitude
-53.56003°
Altitude
483.782 km
Speed
7.627 km/s
Apparent Right ascension
02h 39m 40s
Apparent Declination
-9° 15' 41"
Sunlit
Object is in daylight
Visualization observer readout
Local Sidereal Time
18:51:45
Azimuth
79.444° E
Elevation
-26.534°
Doppler factor
1
Orbital elements
Apogee altitude
486.087 km
Perigee altitude
483.93 km
Semi-major axis
6,863.145 km
Eccentricity
0.00016
Inclination
43.0003°
RAAN
211.621°
Arg. of periapsis
265.9798°
True anomaly
Unknown
Mean anomaly
94.0874°
Eccentric anomaly
Unknown
Mean motion
3.81732 °/min
Orbital period
94.31 mins
BSTAR
-0.0000088356
Loading maneuver chart data...
Loading SW <> Apogee altitude chart data...
Loading historical data...
Loading historical data...
Loading historical data...
Loading historical data...
Loading historical data...
Loading historical data...
Loading historical data...

STARLINK-32483 Visibility forecast

Observer location: undefined°, undefined°

Span
Click to sort rows by Start time (UTC) header in descending order
Start Az.
Max El. time (UTC)
Max El. Az.
Max El.
End time (UTC)
End Az.
7 mins2025-07-03 08:24:57.869Z287.083° WNW2025-07-03 08:28:57.869Z32.183° NE37.74°2025-07-03 08:31:57.869Z83.142° E
6 mins2025-07-03 10:04:57.869Z282.806° WNW2025-07-03 10:07:57.869Z165.29° S41.536°2025-07-03 10:10:57.869Z120.989° SE
5 mins2025-07-04 04:40:57.869Z203.488° SW2025-07-04 04:42:57.869Z142.605° SSE31.117°2025-07-04 04:45:57.869Z83.938° E
6 mins2025-07-04 06:18:57.869Z266.501° W2025-07-04 06:21:57.869Z24.14° NE41.511°2025-07-04 06:24:57.869Z70.01° E
|